Satellite-Ground Cal/Val Site Overpasses Predictions

Prediction of Satellite NPP Overpassing Cal/Val Site: Antarctic Dome C

Ground Cal/Val Site Location: Latitude: -75.10, Longitude: 123.35; Satellite-Ground Site NADIR distance within 100 km.

Table of predicted overpasses for the next 14.0 days since TLE Epoch: 4/12/2019
Interval Starting Time Ending Time Minimum Distance Time Minimum Distance (km)
1 04/14/2019 15:00:48 04/14/2019 15:01:12 04/14/2019 15:01:00 57.09
2 04/15/2019 14:41:59 04/15/2019 14:42:24 04/15/2019 14:42:11 51.97
3 04/16/2019 07:43:40 04/16/2019 07:44:00 04/16/2019 07:43:50 69.47
4 04/17/2019 07:24:48 04/17/2019 07:25:15 04/17/2019 07:25:02 38.43
5 04/19/2019 15:07:16 04/19/2019 15:07:25 04/19/2019 15:07:20 95.16
6 04/20/2019 14:48:16 04/20/2019 14:48:45 04/20/2019 14:48:31 16.15
7 04/22/2019 07:31:07 04/22/2019 07:31:36 04/22/2019 07:31:21 2.15
8 04/25/2019 14:54:36 04/25/2019 14:55:05 04/25/2019 14:54:51 20.76


NCC Satellite Cal/Val Overpasses Prediction Service
